Regional Weather Roundup
Issued by NWS

Home | Current Version | Previous Version | Graphics & Text | Print | Product List | Glossary On
Versions: 1 2 3 4 5 6 7 8 9 10 11 12 13 14 15 16 17 18 19 20 21 22 23 24 25 26 27 28 29 30 31 32 33 34 35 36 37 38 39 40 41 42 43 44 45 46 47 48 49 50
000
ASUS43 KDMX 012307
RWRIA

WEATHER ROUNDUP FOR IOWA
NATIONAL WEATHER SERVICE DES MOINES IA
600 PM CDT WED JUL 01 2015

NOTE: "FAIR" INDICATES FEW OR NO CLOUDS BELOW 12,000 FEET WITH NO
SIGNIFICANT WEATHER AND/OR OBSTRUCTIONS TO VISIBILITY.

* - THESE STATIONS ARE NOT NWS STATIONS...THUS NOT UNDER NWS
QUALITY CONTROL.  THEY ALSO DO NOT REPORT WEATHER SUCH
AS PRECIPITATION OR FOG.

IAZ001>003-012>014-020>022-031>034-043>046-020000-
   NORTHWEST IOWA

CITY           SKY/WX    TMP DP  RH WIND       PRES   REMARKS
CARROLL *      PTSUNNY   73  64  73 E10G16    29.92S
CHEROKEE *     PTSUNNY   73  63  68 E9        29.94R
DENISON *      CLOUDY    72  66  83 E10       29.90S
LE MARS *      PTSUNNY   73  64  73 E9        29.93S
ORANGE CITY *  PTSUNNY   72  63  73 E6        29.95R
SHELDON *      PTSUNNY   73  61  64 E12       29.94S
SIOUX CITY     CLOUDY    75  65  70 E10       29.91R
SPENCER        CLOUDY    72  52  49 SE10      29.96S
STORM LAKE *   MOSUNNY   72  59  64 E14       29.95S
$$

IAZ055>058-069>071-079>083-090>094-020000-
   SOUTHWEST IOWA

CITY           SKY/WX    TMP DP  RH WIND       PRES   REMARKS
ATLANTIC *     PTSUNNY   75  68  78 E13       29.89S
AUDUBON *      MOSUNNY   73  66  78 E9        29.92S
CLARINDA *     PTSUNNY   82  72  69 E9G15     29.87S HX  87
COUNCIL BLFS * MOSUNNY   81  70  69 E13G18    29.87S HX  84
CRESTON *      MOSUNNY   75  68  78 NE17      29.89F
HARLAN  *      MOSUNNY   75  73  94 NE10      29.93S
LAMONI         CLOUDY    79  70  74 NE8       29.88S HX  82
RED OAK *      MOSUNNY   82  70  65 E9G15     29.86S HX  86
SHENANDOAH *   MOSUNNY   82  72  69 NE14      29.85S HX  87
$$

IAZ047>049-059>061-072>074-084-020000-
   CENTRAL IOWA

CITY           SKY/WX    TMP DP  RH WIND       PRES   REMARKS
AMES           CLOUDY    71  56  58 E9        29.93R
ANKENY *       PTSUNNY   72  63  73 E5        29.92S
CHARITON *     MOSUNNY   73  66  78 E14       29.90F
DES MOINES     CLOUDY    75  62  64 NE12      29.91S
GRINNELL*      CLOUDY    70  55  60 NE8       29.94R
KNOXVILLE *    CLOUDY    72  64  78 E6        29.90S HAZE
MARSHALLTOWN   PTSUNNY   69  58  67 NE12      29.94R
PELLA *        CLOUDY    73  66  78 E9        29.93R
PERRY *        CLOUDY    73  63  68 E12       29.92S
$$

IAZ004>006-015-016-023>025-035-036-020000-
   NORTH CENTRAL IOWA

CITY           SKY/WX    TMP DP  RH WIND       PRES   REMARKS
ALGONA *       PTSUNNY   70  55  60 E12       29.97S
CLARION *      PTSUNNY   68  50  52 E13       29.96F
ESTHERVILLE    PTSUNNY   68  57  68 E13       29.98S
FORT DODGE *   PTSUNNY   68  57  68 E12       29.96S
MASON CITY     CLOUDY    64  57  78 E5        30.00S
FOREST CITY *  SUNNY     63  55  77 E3        29.99S
IOWA FALLS *   PTSUNNY   66  54  63 NE9G16    29.97S
$$

IAZ007>011-017>019-026>030-037>042-050>054-066-020000-
   NORTHEAST IOWA

CITY           SKY/WX    TMP DP  RH WIND       PRES   REMARKS
CEDAR RAPIDS   PTSUNNY   69  60  73 NE13      29.93S
CHARLES CITY * CLOUDY    64  54  68 NE7       30.00R
CLINTON *      PTSUNNY   68  55  64 NE6       29.97S
DECORAH *        N/A    N/A N/A N/A MISG        N/A
DUBUQUE        CLOUDY    66  56  70 NE3       29.97R
MONTICELLO *   MOSUNNY   66  59  77 NE3       29.96R
OELWEIN *        N/A     64  55  72 NE8       29.98S
WATERLOO       CLOUDY    65  57  75 NE7       29.96S
$$

IAZ064-065-067-068-078-020000-
   EAST CENTRAL IOWA

CITY           SKY/WX    TMP DP  RH WIND       PRES   REMARKS
DAVENPORT      PTSUNNY   71  57  61 NE10      29.94S
IOWA CITY      PTSUNNY   73  58  59 NE13      29.94R
MT. PLEASANT * CLOUDY    75  61  60 NE7       29.92R
MUSCATINE *    MOSUNNY   75  61  60 E8G15     29.91F
QUAD CITIES    MOSUNNY   74  60  61 MISG      29.92S
$$

IAZ062-063-075>077-085>089-095>099-020000-
   SOUTHEAST IOWA

CITY           SKY/WX    TMP DP  RH WIND       PRES   REMARKS
BURLINGTON     CLOUDY    74  66  76 NE9       29.90R
FAIRFIELD *    PTSUNNY   72  63  73 NE12      29.92R
FORT MADISON * CLOUDY    72  66  83 NE7       29.91S
KEOKUK *       CLOUDY    75  68  78 NE10      29.89S
OSKALOOSA *    CLOUDY    72  64  78 NE6       29.92S
CENTERVILLE *  PTSUNNY   73  68  83 NE12      29.91S
OTTUMWA        CLOUDY    73  65  75 NE9       29.90R
WASHINGTON *   PTSUNNY   72  61  68 E10       29.93F
$$

ABBREVIATIONS USED IN REMARKS
   TC - TEMPERATURES IN CELSIUS
  WCI - WIND CHILL INDEX
   HX - HEAT INDEX
  VSB - VISIBILITY
$$




USA.gov is the U.S. government's official web portal to all federal, state and local government web resources and services.